| time (UTC) | temp C | wind direction | speed KPH | gust KPH | rain 1hr cm | rain 24hr cm | rain mn cm | humidity % | barometer mb |
| 20260503190005 | 9 | 70 | 0.0 | 3.2 | 0.18 | 0.18 | 0.18 | 83 | 1015.6 |
| 20260503184511 | 10 | 219 | 0.0 | 4.8 | 0.08 | 0.08 | 0.08 | 79 | 1016.3 |
| 20260503183004 | 11 | 173 | 0.0 | 17.7 | 0.00 | 0.00 | 0.00 | 74 | 1016.1 |
| 20260503181505 | 13 | 170 | 8.0 | 25.7 | 0.00 | 0.00 | 0.00 | 61 | 1015.8 |
| 20260503180003 | 15 | 169 | 3.2 | 20.9 | 0.00 | 0.00 | 0.00 | 52 | 1015.5 |
| 20260503174602 | 15 | 247 | 3.2 | 17.7 | 0.00 | 0.00 | 0.00 | 50 | 1015.6 |
| 20260503173100 | 16 | 197 | 6.4 | 19.3 | 0.00 | 0.00 | 0.00 | 48 | 1015.9 |
| 20260503171612 | 16 | 270 | 3.2 | 19.3 | 0.00 | 0.00 | 0.00 | 47 | 1015.8 |
| 20260503170105 | 15 | 280 | 4.8 | 17.7 | 0.00 | 0.00 | 0.00 | 50 | 1016.3 |
| 20260503081541 | 4 | 162 | 0.0 | 3.2 | 0.00 | 0.00 | 0.00 | 72 | 1017.6 |
| 20260503071552 | 4 | 136 | 0.0 | 0.0 | 0.00 | 0.00 | 0.00 | 72 | 1017.8 |
| 20260503054524 | 2 | 284 | 0.0 | 0.0 | 0.00 | 0.00 | 0.00 | 78 | 1018.4 |
| 20260503053018 | 2 | 284 | 0.0 | 0.0 | 0.00 | 0.00 | 0.00 | 79 | 1018.5 |
| 20260503051518 | 2 | 284 | 0.0 | 0.0 | 0.00 | 0.00 | 0.00 | 80 | 1018.6 |
| 20260503050017 | 2 | 284 | 0.0 | 0.0 | 0.00 | 0.00 | 0.00 | 83 | 1018.5 |
| 20260503044531 | 2 | 286 | 0.0 | 0.0 | 0.00 | 0.00 | 0.00 | 83 | 1018.7 |
| 20260503043021 | 2 | 284 | 0.0 | 0.0 | 0.00 | 0.00 | 0.00 | 82 | 1018.6 |
| 20260503041510 | 2 | 284 | 0.0 | 0.0 | 0.00 | 0.00 | 0.00 | 83 | 1018.6 |
| 20260503040007 | 2 | 284 | 0.0 | 0.0 | 0.00 | 0.00 | 0.00 | 81 | 1018.6 |
| 20260503034507 | 3 | 284 | 0.0 | 0.0 | 0.00 | 0.00 | 0.00 | 78 | 1018.6 |
| 20260503033006 | 3 | 284 | 0.0 | 0.0 | 0.00 | 0.00 | 0.00 | 79 | 1018.6 |
| 20260503031506 | 3 | 284 | 0.0 | 0.0 | 0.00 | 0.00 | 0.00 | 77 | 1018.6 |
| 20260503030006 | 4 | 284 | 0.0 | 0.0 | 0.00 | 0.00 | 0.00 | 74 | 1018.7 |
| 20260503024504 | 4 | 284 | 0.0 | 0.0 | 0.00 | 0.00 | 0.00 | 72 | 1018.7 |
| 20260503023004 | 4 | 285 | 0.0 | 0.0 | 0.00 | 0.00 | 0.00 | 70 | 1018.7 |
| 20260503021503 | 5 | 284 | 0.0 | 0.0 | 0.00 | 0.00 | 0.00 | 68 | 1018.7 |
| 20260503020003 | 5 | 284 | 0.0 | 0.0 | 0.00 | 0.00 | 0.00 | 64 | 1018.6 |
| 20260503014502 | 5 | 284 | 0.0 | 0.0 | 0.00 | 0.00 | 0.00 | 64 | 1018.4 |
| 20260503013002 | 6 | 284 | 0.0 | 0.0 | 0.00 | 0.00 | 0.00 | 61 | 1018.3 |
| 20260503011502 | 6 | 284 | 0.0 | 0.0 | 0.00 | 0.00 | 0.00 | 57 | 1018.3 |
| 20260503010001 | 7 | 284 | 0.0 | 0.0 | 0.00 | 0.00 | 0.00 | 53 | 1018.4 |
| 20260503004600 | 8 | 284 | 0.0 | 0.0 | 0.00 | 0.00 | 0.00 | 49 | 1018.4 |
| 20260503003100 | 9 | 284 | 0.0 | 0.0 | 0.00 | 0.00 | 0.00 | 47 | 1018.3 |
| 20260503001559 | 10 | 284 | 0.0 | 4.8 | 0.00 | 0.00 | 0.00 | 45 | 1018.2 |
| 20260503000110 | 10 | 271 | 0.0 | 0.0 | 0.00 | 0.00 | 0.00 | 45 | 1018.1 |
| 20260502234604 | 10 | 61 | 0.0 | 4.8 | 0.00 | 0.00 | 0.00 | 44 | 1018.1 |
| 20260502233058 | 10 | 228 | 0.0 | 8.0 | 0.00 | 0.00 | 0.00 | 42 | 1018.1 |
| 20260502231558 | 10 | 303 | 0.0 | 4.8 | 0.00 | 0.00 | 0.00 | 42 | 1018.1 |
| 20260502230056 | 10 | 284 | 0.0 | 6.4 | 0.00 | 0.00 | 0.00 | 41 | 1018.1 |
| 20260502224554 | 11 | 151 | 0.0 | 6.4 | 0.00 | 0.00 | 0.00 | 39 | 1018.1 |
| 20260502223054 | 11 | 280 | 0.0 | 14.5 | 0.00 | 0.00 | 0.00 | 38 | 1018.1 |
| 20260502221608 | 12 | 231 | 1.6 | 19.3 | 0.00 | 0.00 | 0.00 | 39 | 1018.2 |
| 20260502220101 | 11 | 271 | 1.6 | 11.3 | 0.00 | 0.00 | 0.00 | 39 | 1018.2 |
| 20260502214552 | 11 | 262 | 1.6 | 11.3 | 0.00 | 0.00 | 0.00 | 42 | 1018.2 |
| 20260502213051 | 11 | 358 | 0.0 | 9.7 | 0.00 | 0.00 | 0.00 | 42 | 1018.1 |
| 20260502211551 | 11 | 34 | 3.2 | 14.5 | 0.00 | 0.00 | 0.00 | 41 | 1018.2 |
| 20260502210104 | 11 | 222 | 0.0 | 4.8 | 0.00 | 0.00 | 0.00 | 44 | 1018.2 |
| 20260502204548 | 10 | 283 | 0.0 | 11.3 | 0.00 | 0.00 | 0.00 | 43 | 1018.2 |
| 20260502203044 | 10 | 271 | 0.0 | 4.8 | 0.00 | 0.00 | 0.00 | 46 | 1018.4 |
| 20260502201547 | 10 | 266 | 1.6 | 14.5 | 0.00 | 0.00 | 0.00 | 43 | 1018.5 |
| 20260502200054 | 10 | 276 | 1.6 | 12.9 | 0.00 | 0.00 | 0.00 | 44 | 1018.7 |
| 20260502194542 | 10 | 277 | 1.6 | 6.4 | 0.00 | 0.00 | 0.00 | 44 | 1018.9 |
| 20260502193043 | 11 | 345 | 0.0 | 12.9 | 0.00 | 0.00 | 0.00 | 47 | 1019.0 |
| 20260502191544 | 10 | 261 | 3.2 | 12.9 | 0.00 | 0.00 | 0.00 | 46 | 1019.1 |